[[{"header":{"parameterUnit":"m.s-1","parameterCategory":1,"la1":30.2992,"la2":30.254,"lo1":-89.0895,"lo2":-89.0443,"dy":0.0025,"dx":0.0025,"nx":19,"ny":19,"refTime":"2026-04-23T09:00:00:Z","depth":0,"parameterNumber":2,"parameterNumberName":"U-component_of_WINDS"},"data":[0,0,0,-0.5689,-0.5689,-0.5649,-0.5649,-0.5599,-0.5598,0,0,0,0,0,0,0,0,0,0,0,-0.5701,-0.5701,-0.5689,-0.5688,-0.5649,-0.5649,-0.5599,-0.5598,0,0,0,0,0,0,0,0,0,0,0,-0.5702,-0.5701,-0.5701,-0.5688,-0.5649,-0.5649,-0.5599,-0.5629,0,0,0,0,0,0,0,0,0,0,-0.5667,-0.5678,-0.5701,-0.5701,-0.5688,-0.5649,-0.5649,-0.563,-0.5627,-0.5617,0,-0.5608,0,-0.5602,-0.5595,-0.5595,0,0,0,-0.5688,-0.5681,-0.567,-0.5701,-0.5688,-0.5649,-0.5667,-0.5628,-0.5624,-0.5613,-0.5607,-0.5606,-0.5602,-0.5595,-0.5594,-0.5539,-0.5539,0,0,-0.569,-0.5694,-0.5673,-0.5668,-0.5674,-0.5668,-0.5665,-0.5626,-0.562,-0.5607,-0.5604,-0.5601,-0.5594,-0.5594,-0.5539,-0.5539,0,0,0,-0.5697,-0.5696,-0.5686,-0.567,-0.5663,-0.5667,-0.5664,-0.5622,-0.5619,-0.5604,-0.56,-0.5594,-0.5593,-0.5539,-0.5539,-0.553,0,0,0,-0.5698,-0.57,-0.5687,-0.5689,-0.5663,-0.5642,-0.5661,-0.5621,-0.5617,-0.56,-0.5594,-0.5593,-0.554,-0.5539,-0.5531,-0.5525,0,0,0,-0.5704,-0.57,-0.5695,-0.5689,-0.5672,-0.5642,-0.5637,-0.562,-0.5615,-0.5595,-0.5593,-0.554,-0.5539,-0.5532,-0.5526,-0.5511,0,0,0,-0.5711,-0.5687,-0.5695,-0.5667,-0.5673,-0.5637,-0.5637,-0.561,-0.5592,-0.5594,-0.554,-0.5539,-0.5532,-0.5527,-0.5512,-0.5499,-0.5494,0,0,-0.5683,-0.5684,-0.5667,-0.5673,-0.5637,-0.5643,-0.5606,-0.5586,-0.5581,-0.5553,-0.5552,-0.5531,-0.5526,-0.5512,-0.5467,-0.5463,0,0,0,-0.566,-0.5648,-0.5638,-0.5621,-0.5605,-0.5591,-0.5576,-0.5569,-0.5545,-0.5567,-0.5522,-0.5519,-0.551,-0.5504,-0.55,-0.5492,-0.5536,-0.5536,-0.5537,-0.5625,-0.562,-0.5592,-0.5582,-0.5566,-0.5551,-0.5537,-0.5525,-0.5524,-0.5514,-0.5505,-0.5478,-0.5471,-0.5469,-0.546,-0.5498,-0.5498,-0.5498,-0.5498,-0.5583,-0.5565,-0.5566,-0.5539,-0.5534,-0.5511,-0.5496,-0.5497,-0.5475,-0.5484,-0.5476,-0.5486,-0.5464,-0.5457,-0.5498,-0.5498,-0.5498,-0.5498,-0.5498,-0.5559,-0.555,-0.5542,-0.5517,-0.5499,-0.549,-0.5469,-0.5466,-0.5462,-0.5454,-0.5445,-0.5445,-0.5444,-0.545,-0.545,-0.545,-0.545,-0.545,-0.545,-0.5537,-0.5528,-0.5511,-0.5493,-0.5482,-0.5467,-0.5453,-0.5442,-0.5429,-0.5428,-0.5428,-0.5428,-0.5464,-0.5472,-0.5448,-0.5448,-0.5449,-0.5449,-0.5449,-0.5495,-0.5505,-0.5478,-0.5467,-0.5446,-0.5428,-0.5424,-0.5403,-0.5393,-0.5383,-0.5386,-0.5413,-0.5413,-0.5416,-0.5423,-0.5387,-0.5387,-0.5387,-0.5387,-0.5475,-0.5475,-0.5447,-0.543,-0.5413,-0.5407,-0.5378,-0.5367,-0.5357,-0.5351,-0.5356,-0.5365,-0.5368,-0.5367,-0.537,-0.5377,-0.5331,-0.5331,-0.5331,-0.5449,-0.5447,-0.5423,-0.5413,-0.5397,-0.5383,-0.5355,-0.5336,-0.5327,-0.5328,-0.5346,-0.5349,-0.5364,-0.5369,-0.5369,-0.5375,-0.5387,0,0]},{"header":{"parameterUnit":"m.s-1","parameterCategory":1,"la1":30.2992,"la2":30.254,"lo1":-89.0895,"lo2":-89.0443,"dy":0.0025,"dx":0.0025,"nx":19,"ny":19,"refTime":"2026-04-23T09:00:00:Z","depth":0,"parameterNumber":3,"parameterNumberName":"V-component_of_WINDS"},"data":[0,0,0,3.8007,3.8013,3.8338,3.834,3.872,3.8723,0,0,0,0,0,0,0,0,0,0,0,3.7888,3.7889,3.8006,3.8014,3.8338,3.834,3.8719,3.8723,0,0,0,0,0,0,0,0,0,0,0,3.7887,3.7889,3.7891,3.8015,3.8338,3.834,3.8719,3.8487,0,0,0,0,0,0,0,0,0,0,3.8177,3.8044,3.7888,3.7891,3.8017,3.8338,3.834,3.8476,3.8501,3.8557,0,3.8599,0,3.8667,3.8746,3.8747,0,0,0,3.8032,3.8023,3.8131,3.7891,3.8019,3.8337,3.8197,3.8491,3.8519,3.859,3.8605,3.862,3.8673,3.8748,3.875,3.901,3.901,0,0,3.8014,3.7934,3.8112,3.8148,3.8094,3.8186,3.8207,3.8508,3.852,3.8607,3.863,3.8679,3.8751,3.8753,3.901,3.901,0,0,0,3.795,3.7921,3.8023,3.8132,3.8193,3.8195,3.8219,3.8507,3.8546,3.8634,3.8684,3.8753,3.8757,3.9009,3.901,3.8951,0,0,0,3.794,3.7884,3.8014,3.7968,3.8186,3.8354,3.821,3.8525,3.8562,3.8682,3.8753,3.876,3.9009,3.901,3.8952,3.8937,0,0,0,3.7874,3.7877,3.7915,3.7963,3.81,3.8351,3.8408,3.8535,3.8592,3.8748,3.8761,3.9009,3.901,3.8953,3.8939,3.8983,0,0,0,3.7782,3.7859,3.7913,3.8019,3.8096,3.831,3.8407,3.8571,3.8698,3.8754,3.9009,3.901,3.8953,3.894,3.8983,3.9006,3.9008,0,0,3.7835,3.7862,3.7931,3.7989,3.8173,3.8267,3.8445,3.8637,3.8725,3.891,3.8918,3.8952,3.8939,3.8983,3.9043,3.9044,0,0,0,3.7921,3.797,3.8036,3.8152,3.8299,3.8425,3.8599,3.867,3.8831,3.8803,3.8982,3.8977,3.9006,3.902,3.9021,3.9052,3.9013,3.9013,3.9013,3.7884,3.7991,3.8113,3.8259,3.8371,3.8548,3.8649,3.8776,3.8853,3.8893,3.895,3.8973,3.8987,3.8988,3.9018,3.897,3.8969,3.8969,3.8969,3.7973,3.8059,3.8158,3.8311,3.8425,3.8556,3.873,3.878,3.892,3.8939,3.8971,3.8983,3.8985,3.9018,3.8966,3.8966,3.8967,3.8967,3.8967,3.7961,3.8021,3.8105,3.8284,3.841,3.8557,3.8686,3.8785,3.888,3.8911,3.8981,3.8983,3.8997,3.8937,3.8937,3.8937,3.8937,3.8937,3.8937,3.7916,3.8013,3.8108,3.8271,3.8358,3.8487,3.8665,3.8755,3.8881,3.8943,3.8944,3.9017,3.8964,3.8949,3.8939,3.8939,3.8939,3.8938,3.8938,3.7968,3.7972,3.8119,3.8207,3.8406,3.8525,3.865,3.8824,3.8913,3.8973,3.904,3.8984,3.902,3.9021,3.9009,3.9016,3.9016,3.9016,3.9016,3.7959,3.7986,3.816,3.8293,3.8436,3.8563,3.8728,3.8867,3.9013,3.9075,3.9088,3.9081,3.9077,3.9116,3.9114,3.9105,3.9135,3.9136,3.9136,3.7998,3.8044,3.8164,3.8304,3.8468,3.8606,3.8764,3.8915,3.9081,3.9143,3.9126,3.9121,3.911,3.9101,3.9163,3.9158,3.9144,0,0]}]]